Wind_Speed
34 35 35 35 36 38 39 39 38 38 39 39 39 38 37 36 36 35 35 36 36 36 36 36 36 37 38 39 41 41 41 39 39 38 37 37 38 38 37 36 36 36 36 37
31 31 32 33 34 34 35 35 35 36 37 38 38 38 37 37 37 37 38 38 39 39 40 40 40 40 40 41 42 44 45 43 42 42 40 39 39 38 38 37 37 36 37 37
28 29 29 30 29 30 31 32 33 33 34 36 38 39 38 38 38 39 40 41 43 44 44 45 45 45 45 45 45 45 46 47 46 45 44 42 40 39 39 38 38 38 38 39
26 25 26 26 26 27 28 29 29 30 32 33 37 41 38 39 41 43 45 46 47 48 49 50 50 50 49 49 49 48 48 49 50 48 46 44 42 41 41 40 39 39 39 39
23 22 22 23 23 24 25 25 27 29 31 34 35 41 40 42 44 47 50 51 52 53 54 55 55 54 54 53 53 52 51 51 52 50 48 46 45 43 42 41 40 40 40 40
22 21 21 21 22 22 23 25 27 30 32 35 37 42 42 45 48 51 53 55 56 56 57 57 58 58 58 57 57 56 54 53 53 52 50 49 47 44 43 41 41 41 41 41
21 20 20 21 21 22 23 25 28 32 35 37 41 44 43 46 49 52 54 55 56 57 57 57 57 58 59 59 59 58 57 55 53 52 51 50 49 46 44 43 42 42 41 41
22 21 21 21 21 23 25 27 30 34 38 40 43 45 44 46 49 52 53 54 55 55 56 55 55 55 56 58 59 59 58 56 54 52 51 51 49 46 45 44 43 42 41 41
22 21 21 21 22 24 26 29 32 36 39 42 43 44 44 45 47 49 51 52 53 53 54 53 52 52 53 55 57 58 59 57 54 53 52 51 48 47 45 45 44 43 41 41
22 21 21 22 24 26 29 30 31 34 38 41 42 42 42 41 42 44 47 49 50 51 51 51 49 49 50 51 53 55 57 56 54 53 51 49 47 46 45 44 43 42 41 40
22 22 21 22 25 26 27 29 31 34 36 39 41 38 36 38 41 43 46 47 49 50 49 48 47 47 48 48 49 51 53 54 53 51 49 47 46 45 44 43 43 42 41 40
21 20 20 22 24 25 26 27 29 31 33 35 37 35 33 35 39 42 44 45 46 46 45 45 43 43 44 45 46 47 49 51 50 48 46 45 45 44 43 42 41 41 40 39
19 19 20 22 22 22 22 24 26 28 29 30 33 32 31 36 39 41 43 43 43 43 42 40 39 38 39 41 41 43 46 46 45 44 43 43 43 42 41 40 40 40 39 38
18 18 19 20 20 19 18 20 23 25 26 27 28 30 30 33 36 37 39 39 38 37 35 33 31 30 33 36 38 39 41 41 41 41 40 40 40 39 39 38 38 37 37 37
16 16 17 17 17 16 15 16 18 20 21 24 25 28 30 32 32 32 33 31 29 27 24 23 21 23 27 31 33 35 36 37 38 38 38 37 36 36 36 36 35 35 36 36
15 14 14 15 14 13 12 13 14 15 17 20 24 26 28 29 28 28 26 23 18 14 12 12 12 16 21 25 28 31 33 35 36 35 34 33 32 32 32 32 32 34 35 36
14 13 13 13 12 10 10 10 10 11 14 18 23 25 26 25 26 24 22 18 12 7 2 4 7 12 18 22 25 29 31 31 30 29 28 28 28 29 29 30 32 33 34 37
13 12 11 11 10 9 7 7 8 10 14 17 20 23 24 23 23 21 19 16 12 9 8 9 10 13 18 22 24 26 26 25 24 24 24 24 25 25 27 28 30 32 35 39
13 11 10 9 8 7 5 5 7 9 12 15 18 21 20 20 21 21 18 17 16 16 15 15 15 17 20 21 21 21 20 20 19 19 19 20 21 23 26 29 31 33 36 38
12 11 9 8 7 6 5 5 7 9 11 14 15 18 18 18 19 19 19 17 17 18 18 17 17 18 18 18 17 17 16 15 15 15 16 18 21 24 27 30 33 35 37 38
12 11 9 8 6 6 5 6 7 9 11 12 13 15 16 16 17 17 17 16 15 16 16 16 16 17 17 16 15 14 13 13 14 15 17 20 23 26 28 30 33 34 36 37
13 11 10 8 7 6 6 7 7 9 10 10 11 13 13 13 13 13 13 13 13 12 12 13 12 12 12 11 12 12 12 13 15 18 20 22 23 25 26 28 31 33 35 37
14 13 12 10 9 8 7 7 8 8 9 9 10 10 11 11 11 10 9 10 10 10 9 9 8 8 8 8 9 10 11 12 13 14 16 18 20 23 25 28 30 32 35 37
16 15 13 12 11 10 9 8 8 8 8 8 8 8 8 9 9 8 7 7 6 6 6 6 6 5 5 4 5 5 6 8 10 12 15 17 20 22 25 28 30 33 35 38
17 16 15 13 12 11 10 10 9 9 8 8 8 7 6 7 7 6 5 5 5 4 4 4 4 3 2 2 2 4 6 8 11 13 16 18 21 23 26 29 31 34 36 37
19 17 16 14 14 13 12 12 11 10 9 8 8 7 6 6 6 5 4 3 3 2 2 2 1 1 0 2 3 5 7 10 12 15 17 20 23 25 28 30 32 34 35 38
Wind_Direction
225 227 228 230 231 233 235 236 239 241 242 240 239 240 241 242 246 248 251 254 256 259 260 260 260 258 257 257 257 257 259 258 259 261 264 265 266 266 266 267 270 272 275 277
225 226 227 229 231 234 237 238 240 241 243 243 241 241 243 245 248 251 253 255 257 259 260 261 261 260 259 258 258 257 256 256 257 258 260 261 262 265 267 268 270 273 275 277
222 223 225 228 230 233 236 239 241 243 245 248 247 244 246 250 253 256 258 259 260 260 261 260 260 260 260 259 258 257 255 254 253 254 256 258 261 263 266 268 270 272 274 277
219 219 222 225 228 232 237 241 245 248 250 252 254 253 248 257 260 261 261 262 263 263 262 262 261 260 259 258 257 255 254 252 251 251 252 255 257 260 262 264 267 270 273 276
214 215 218 223 228 233 240 244 251 255 258 259 260 263 257 262 264 266 267 266 265 265 264 263 262 261 259 258 256 255 253 251 251 250 250 251 253 256 258 262 265 268 270 273
211 212 218 225 231 238 245 252 258 262 265 266 268 270 267 271 273 274 273 272 270 269 267 264 262 260 259 257 256 254 252 251 250 249 248 248 250 253 256 259 261 264 267 271
212 215 222 229 237 245 253 260 266 269 270 272 274 276 275 276 278 279 278 278 276 275 272 269 265 261 257 255 253 252 250 249 248 247 246 246 248 250 253 256 259 262 265 269
217 220 227 236 245 253 260 266 272 276 277 278 279 281 282 283 284 283 282 280 279 277 275 272 268 264 258 254 250 248 247 246 246 245 244 244 245 248 250 253 257 260 263 267
222 228 235 243 251 259 265 270 275 279 281 282 284 286 287 289 289 288 286 284 282 280 277 274 270 264 259 253 248 245 243 242 242 242 241 242 243 245 248 251 254 258 261 265
227 233 240 249 257 263 268 273 277 280 284 287 289 292 297 298 297 294 292 290 288 285 282 277 271 264 258 252 247 243 240 238 238 237 238 239 240 242 245 249 253 257 260 264
231 239 247 254 259 265 271 276 279 283 288 292 295 299 308 305 301 298 295 292 290 288 284 278 271 263 255 249 245 241 237 234 233 234 235 236 238 240 244 248 252 256 260 264
234 243 250 255 261 267 273 278 283 287 291 296 300 307 312 305 300 297 294 292 288 285 282 277 270 261 251 244 240 236 232 229 229 229 230 233 235 239 243 248 252 256 260 265
234 242 250 257 263 269 276 282 287 291 296 303 307 315 315 309 306 302 298 295 288 284 280 276 267 256 246 237 233 229 225 224 223 224 225 229 233 237 242 247 252 257 262 267
234 242 251 259 266 272 277 281 288 295 304 312 317 320 322 316 311 308 304 298 291 284 279 272 262 248 237 231 226 221 218 217 217 218 221 225 231 236 242 248 253 259 264 270
235 242 250 260 269 277 282 286 293 304 314 321 328 329 330 325 321 320 316 308 298 288 279 267 253 238 228 223 217 211 209 208 210 213 218 223 229 236 243 250 256 262 267 273
235 241 250 259 266 275 285 294 306 317 325 332 337 337 335 334 330 330 330 328 318 303 278 254 235 222 213 207 203 200 199 201 205 210 216 223 230 238 246 253 259 265 270 276
234 239 246 254 262 273 287 299 317 328 336 342 344 345 345 343 340 342 346 350 355 351 331 196 189 187 187 187 186 186 190 196 202 208 216 224 233 241 249 255 262 268 274 277
232 237 240 248 261 275 285 301 325 339 347 349 350 352 353 355 358 2 11 22 34 53 80 110 134 152 161 167 171 177 183 190 197 206 217 226 234 243 253 261 267 272 275 276
230 233 236 243 252 265 281 306 332 344 351 354 355 358 0 5 12 19 28 42 56 71 85 101 116 131 143 151 160 168 176 186 196 207 219 231 240 249 257 263 267 271 275 281
227 227 234 237 244 259 283 307 330 342 347 354 359 3 5 10 18 28 37 50 64 75 85 96 110 123 133 142 151 159 171 184 196 209 222 235 246 252 257 263 270 275 280 284
223 223 228 234 246 264 289 309 326 334 344 351 357 0 6 12 20 30 39 50 63 76 88 98 108 119 127 136 145 156 170 188 202 216 229 240 249 256 262 268 275 280 284 287
222 223 229 236 248 260 285 302 317 331 339 345 351 357 4 9 14 25 39 49 59 73 88 101 111 122 133 145 161 173 191 205 218 228 237 246 256 265 272 277 281 285 289 292
226 229 233 239 249 261 278 295 312 324 333 338 344 351 359 6 12 16 29 43 55 66 80 94 112 133 152 167 178 191 208 223 236 247 256 264 271 276 280 284 288 291 294 297
228 233 236 241 249 261 273 288 301 311 320 329 336 344 353 2 9 19 27 35 50 64 77 87 98 116 138 162 188 211 231 246 257 266 272 277 281 285 288 291 294 297 299 301
232 235 238 242 250 258 268 280 288 296 303 314 323 332 344 353 359 4 22 36 48 63 76 87 95 105 124 162 212 243 260 270 276 281 285 288 291 293 296 298 299 301 303 305
235 236 239 246 253 259 265 273 277 281 288 296 305 312 324 331 339 349 355 2 11 37 54 61 65 74 271 276 282 285 288 289 290 291 293 295 296 298 300 302 304 306 307 308
Height
5665 5671 5676 5681 5685 5689 5693 5698 5702 5705 5707 5711 5715 5719 5722 5724 5727 5729 5731 5732 5734 5735 5737 5739 5741 5743 5745 5747 5748 5750 5751 5754 5756 5757 5759 5761 5761 5762 5764 5766 5767 5768 5768 5768
5661 5666 5671 5675 5679 5684 5688 5692 5695 5698 5701 5704 5708 5712 5715 5717 5719 5721 5722 5723 5725 5726 5727 5729 5731 5733 5735 5738 5739 5741 5742 5745 5748 5749 5751 5752 5753 5755 5757 5758 5760 5761 5760 5760
5656 5662 5666 5670 5675 5679 5683 5686 5690 5693 5695 5698 5701 5706 5709 5710 5711 5713 5713 5714 5714 5715 5717 5718 5720 5722 5724 5727 5729 5730 5733 5734 5737 5740 5742 5743 5746 5748 5749 5750 5752 5753 5753 5753
5652 5657 5662 5667 5671 5674 5678 5682 5685 5687 5689 5692 5694 5696 5704 5703 5702 5702 5702 5703 5703 5703 5705 5706 5708 5710 5712 5715 5717 5719 5721 5723 5725 5729 5732 5735 5738 5740 5741 5743 5744 5745 5745 5745
5650 5654 5659 5663 5667 5670 5674 5677 5680 5681 5683 5686 5688 5687 5695 5693 5693 5691 5689 5689 5690 5690 5691 5692 5694 5696 5698 5701 5703 5706 5709 5711 5714 5718 5723 5726 5728 5731 5733 5735 5736 5737 5738 5738
5647 5652 5656 5660 5663 5667 5669 5673 5674 5675 5676 5679 5680 5678 5685 5683 5680 5677 5675 5674 5674 5674 5675 5676 5678 5680 5683 5686 5689 5692 5696 5699 5702 5707 5712 5716 5718 5722 5724 5727 5728 5729 5730 5730
5644 5649 5653 5656 5660 5663 5665 5668 5669 5668 5669 5672 5670 5669 5675 5672 5666 5662 5660 5658 5656 5656 5657 5658 5660 5663 5666 5669 5672 5677 5681 5685 5690 5695 5700 5705 5709 5713 5715 5718 5719 5721 5721 5722
5641 5646 5650 5653 5656 5658 5660 5662 5663 5662 5662 5662 5660 5659 5662 5658 5653 5648 5645 5643 5641 5639 5639 5639 5641 5643 5647 5650 5655 5660 5666 5671 5677 5683 5688 5693 5698 5703 5706 5708 5710 5712 5713 5714
5638 5643 5646 5649 5651 5653 5654 5655 5656 5655 5653 5651 5651 5650 5649 5646 5640 5635 5630 5626 5623 5621 5621 5621 5622 5625 5628 5632 5637 5643 5649 5656 5663 5669 5675 5682 5688 5692 5696 5699 5701 5703 5705 5705
5635 5639 5642 5644 5646 5647 5649 5649 5649 5647 5645 5642 5641 5639 5637 5631 5626 5621 5615 5610 5607 5604 5603 5603 5605 5607 5610 5614 5620 5626 5633 5641 5649 5656 5664 5671 5677 5682 5686 5689 5692 5695 5696 5696
5632 5636 5639 5640 5641 5642 5644 5644 5642 5640 5639 5635 5630 5632 5628 5621 5614 5609 5603 5597 5592 5589 5586 5585 5587 5589 5593 5598 5604 5610 5618 5626 5636 5645 5653 5661 5667 5673 5677 5681 5684 5686 5687 5688
5628 5632 5634 5635 5636 5637 5638 5638 5636 5635 5632 5627 5622 5624 5619 5611 5604 5597 5591 5585 5578 5575 5571 5569 5570 5573 5577 5583 5589 5596 5604 5614 5625 5635 5644 5652 5658 5664 5668 5672 5675 5677 5679 5680
5625 5629 5630 5631 5634 5634 5633 5632 5630 5628 5625 5621 5616 5615 5610 5601 5593 5586 5579 5572 5565 5560 5557 5555 5555 5558 5563 5569 5576 5584 5594 5605 5617 5627 5635 5643 5650 5655 5660 5664 5667 5669 5671 5672
5623 5625 5627 5628 5628 5629 5629 5628 5625 5622 5619 5615 5611 5605 5602 5593 5584 5577 5568 5560 5553 5548 5544 5542 5543 5547 5552 5558 5566 5576 5587 5599 5610 5619 5628 5635 5642 5648 5653 5657 5660 5662 5663 5664
5619 5621 5622 5623 5623 5624 5624 5623 5621 5618 5614 5610 5606 5600 5594 5586 5578 5569 5560 5551 5544 5539 5535 5534 5535 5539 5545 5552 5561 5572 5583 5594 5604 5613 5622 5630 5636 5642 5646 5650 5653 5655 5655 5656
5616 5618 5619 5620 5620 5620 5620 5619 5617 5615 5611 5607 5602 5597 5590 5581 5573 5564 5555 5546 5539 5534 5531 5531 5533 5537 5542 5550 5560 5570 5581 5591 5600 5610 5618 5626 5632 5637 5641 5644 5646 5647 5648 5647
5613 5615 5617 5617 5617 5617 5617 5616 5615 5612 5609 5605 5599 5595 5587 5580 5571 5562 5554 5545 5539 5535 5533 5533 5535 5539 5545 5553 5561 5571 5581 5590 5600 5608 5616 5622 5628 5632 5635 5638 5640 5640 5640 5639
5611 5612 5613 5614 5616 5615 5617 5614 5612 5610 5607 5603 5598 5593 5586 5579 5572 5564 5556 5549 5544 5541 5539 5539 5541 5545 5550 5558 5566 5575 5583 5592 5600 5607 5614 5619 5624 5627 5630 5632 5633 5633 5632 5630
5608 5610 5611 5612 5612 5613 5614 5612 5610 5608 5606 5602 5598 5593 5588 5582 5575 5569 5562 5556 5552 5549 5547 5547 5549 5553 5558 5565 5572 5579 5586 5593 5600 5606 5612 5616 5620 5623 5625 5626 5626 5625 5623 5621
5606 5608 5609 5610 5611 5611 5613 5610 5608 5608 5605 5602 5598 5594 5590 5585 5580 5575 5569 5564 5561 5558 5557 5557 5559 5562 5566 5572 5578 5583 5590 5595 5601 5606 5610 5614 5616 5618 5619 5619 5619 5617 5615 5612
5604 5606 5607 5608 5609 5610 5610 5609 5608 5608 5606 5602 5598 5595 5591 5588 5584 5580 5575 5572 5569 5567 5567 5567 5568 5570 5574 5578 5582 5587 5592 5596 5601 5605 5608 5610 5612 5613 5613 5613 5611 5609 5607 5603
5602 5604 5605 5606 5607 5610 5608 5607 5607 5606 5603 5601 5598 5596 5593 5590 5587 5584 5581 5578 5576 5575 5575 5575 5576 5577 5580 5582 5586 5589 5593 5596 5600 5603 5605 5607 5608 5608 5607 5606 5604 5601 5598 5595
5600 5602 5603 5606 5608 5607 5606 5605 5605 5603 5602 5600 5598 5596 5594 5592 5589 5587 5585 5583 5582 5581 5581 5581 5582 5583 5585 5588 5590 5593 5595 5598 5600 5601 5602 5603 5603 5602 5601 5599 5596 5593 5589 5585
5597 5599 5601 5602 5603 5603 5603 5603 5603 5602 5601 5600 5598 5597 5595 5593 5591 5589 5588 5586 5585 5585 5585 5585 5586 5587 5588 5590 5592 5594 5595 5597 5598 5598 5598 5598 5597 5596 5594 5591 5588 5585 5581 5576
5594 5596 5597 5599 5600 5601 5601 5601 5601 5600 5600 5599 5598 5597 5595 5594 5592 5591 5590 5589 5588 5588 5587 5588 5588 5589 5590 5591 5592 5593 5594 5594 5595 5594 5594 5593 5591 5589 5587 5584 5580 5576 5572 5567
5590 5593 5594 5596 5597 5598 5598 5598 5598 5598 5598 5597 5597 5596 5595 5594 5593 5592 5591 5590 5589 5589 5589 5589 5589 5590 5590 5591 5591 5592 5592 5592 5591 5590 5589 5587 5585 5582 5579 5576 5572 5568 5563 5558